Date,TemperatureHighF,TemperatureAvgF,TemperatureLowF,DewpointHighF,DewpointAvgF,DewpointLowF,HumidityHigh,HumidityAvg,HumidityLow,PressureMaxIn,PressureMinIn,WindSpeedMaxMPH,WindSpeedAvgMPH,GustSpeedMaxMPH,PrecipitationSumIn
2013-1-1,21.8,7.5,-5.5,19.3,4.0,-9.1,90,85,76,30.24,29.99,7,2,14,0.00
2013-1-2,23.0,19.4,16.4,20.5,17.0,14.0,90,90,90,30.03,29.91,8,3,12,0.00
2013-1-3,23.0,16.2,13.4,20.4,13.1,9.5,90,88,80,30.23,30.03,9,2,21,0.00
2013-1-4,30.1,23.1,17.0,22.7,19.0,14.6,90,84,73,30.08,29.97,9,2,16,0.01
2013-1-5,27.0,19.6,13.1,20.9,16.2,10.7,90,87,76,30.04,29.80,7,1,12,0.00
2013-1-6,23.2,18.0,12.2,19.1,14.6,9.8,90,87,77,30.18,29.97,10,1,23,0.00
2013-1-7,36.8,30.3,21.8,30.5,26.6,19.3,90,86,78,29.97,29.84,12,5,23,0.03
2013-1-8,35.7,28.7,19.6,32.8,26.0,17.2,90,90,86,29.93,29.71,10,3,17,0.01
2013-1-9,34.9,31.8,26.8,31.4,27.0,24.3,90,83,71,30.32,29.86,10,3,23,0.01
2013-1-10,42.0,36.4,30.1,33.8,29.8,26.0,90,78,55,30.26,29.69,10,4,16,0.25
2013-1-11,42.7,38.8,36.4,40.0,36.1,33.7,90,90,90,29.68,29.31,9,2,15,0.04
2013-1-12,40.5,18.0,6.9,37.8,14.3,2.8,90,85,79,30.04,29.33,12,4,26,0.00
2013-1-13,12.1,7.3,4.1,7.8,3.7,0.9,88,85,81,30.20,30.00,6,1,10,0.00
2013-1-14,15.1,10.8,6.7,10.7,7.2,4.3,90,85,76,30.36,30.20,7,1,13,0.00
2013-1-15,30.7,21.6,12.9,23.6,17.3,10.5,90,84,71,30.23,29.79,14,4,21,0.00
2013-1-16,38.2,28.2,15.4,35.5,23.0,8.1,90,81,54,30.17,29.61,14,4,22,0.03
2013-1-17,20.6,15.0,7.8,16.2,8.1,1.6,86,74,63,30.35,30.18,6,0,10,0.00
2013-1-18,42.8,31.8,19.7,36.7,28.2,16.4,90,87,73,30.24,29.68,10,4,18,0.00
2013-1-19,40.8,26.3,4.6,36.2,21.7,-0.7,90,83,65,30.19,29.62,13,4,30,0.00
2013-1-20,11.3,5.1,0.0,4.9,-1.1,-6.7,84,75,64,30.36,30.19,7,1,14,0.00
2013-1-21,-0.2,-3.8,-8.5,-6.4,-10.1,-14.6,81,74,67,30.31,30.22,8,1,13,0.00
2013-1-22,7.9,-0.6,-8.4,2.4,-6.5,-12.9,81,76,68,30.35,30.19,5,0,10,0.00
2013-1-23,18.4,9.3,-1.6,13.0,2.0,-12.1,90,72,55,30.56,30.09,12,3,21,0.00
2013-1-24,15.8,8.6,-3.6,6.5,-1.6,-12.9,67,62,57,30.60,30.13,10,2,19,0.00
2013-1-25,21.3,15.2,6.3,17.3,8.5,1.5,85,75,65,30.26,29.90,9,3,18,0.00
2013-1-26,26.4,15.3,2.0,16.6,8.2,-1.2,89,74,58,30.30,30.06,7,1,16,0.00
2013-1-27,34.3,31.5,25.7,31.1,25.5,16.5,90,79,64,30.06,29.74,10,2,17,0.10
2013-1-28,36.3,33.2,32.5,33.6,30.6,29.9,90,90,90,29.84,29.59,6,0,12,0.05
2013-1-29,36.5,33.8,29.8,33.8,31.1,27.0,90,90,89,29.68,29.47,10,3,18,0.17
2013-1-30,29.8,19.4,10.6,26.8,15.3,5.9,90,84,78,29.71,29.58,10,7,20,0.00
2013-1-31,10.5,3.3,-5.2,6.2,-1.4,-10.8,86,80,75,30.23,29.71,9,4,15,0.00
2013-2-1,7.3,-0.1,-8.4,5.0,-5.0,-12.7,90,80,67,30.27,29.99,7,0,10,0.00
2013-2-2,13.7,8.8,3.6,10.0,5.3,0.8,90,85,74,30.13,29.91,6,1,10,0.00
2013-2-3,17.2,12.8,5.8,11.9,9.1,2.8,90,85,73,30.04,29.90,7,1,13,0.00
2013-2-4,19.8,13.1,6.7,13.4,8.0,4.0,90,80,63,30.01,29.76,8,1,13,0.00
2013-2-5,31.0,23.4,10.8,27.4,18.6,8.4,90,82,74,30.03,29.79,7,2,13,0.00
2013-2-6,27.9,18.3,6.3,24.5,15.8,4.0,90,90,87,30.06,29.88,7,2,15,0.00
2013-2-7,28.7,27.4,23.2,26.0,24.6,20.7,90,89,86,30.20,29.92,10,5,17,0.00
2013-2-8,27.6,25.8,22.7,24.9,21.9,17.9,90,85,72,30.33,30.17,9,3,15,0.01
2013-2-9,34.0,30.4,27.1,31.4,27.8,24.5,90,90,90,30.17,29.87,14,7,23,0.00
2013-2-10,35.4,32.4,29.9,32.7,29.8,27.3,90,90,90,29.87,29.21,10,3,22,0.01
2013-2-11,31.8,26.4,19.4,29.2,23.4,16.9,90,88,85,29.99,29.28,8,1,14,0.00
2013-2-12,36.9,26.6,17.8,30.6,23.1,15.4,90,87,76,30.00,29.76,9,2,17,0.13
2013-2-13,41.1,30.6,20.6,34.6,27.3,18.1,90,87,74,29.76,29.50,7,2,12,0.27
2013-2-14,34.8,28.5,16.7,32.1,23.3,10.1,90,81,59,30.13,29.51,7,0,12,0.06
2013-2-15,19.5,12.8,7.0,10.1,6.9,3.4,88,77,62,30.25,30.14,7,1,20,0.00
2013-2-16,19.8,10.0,2.0,12.3,6.0,-0.9,90,84,70,30.22,30.05,5,0,7,0.01
2013-2-17,33.7,23.0,9.6,27.2,18.6,6.8,90,83,71,30.06,29.57,15,6,27,0.02
2013-2-18,34.9,26.3,10.4,32.2,22.8,7.8,90,87,82,29.73,29.46,9,5,17,0.00
2013-2-19,7.7,5.2,1.8,0.3,-1.9,-4.0,78,72,69,30.30,30.03,10,2,18,0.00
2013-2-23,29.6,29.2,28.5,25.7,10.2,0.0,88,35,87,29.82,29.82,7,4,10,0.00
2013-7-24,76.8,72.6,66.7,64.2,61.8,58.3,90,70,53,30.03,29.93,6,1,12,0.00
2013-7-25,79.0,72.2,62.9,73.2,66.5,59.9,90,83,63,29.94,29.86,6,1,10,0.03
2013-7-26,71.5,65.0,59.2,68.4,60.1,50.3,90,84,70,30.04,29.86,8,2,22,0.24
2013-7-27,63.2,58.3,54.0,56.6,53.2,50.4,90,83,65,30.03,29.89,7,1,13,0.01
2013-7-28,70.5,61.3,54.0,58.4,54.2,51.0,90,79,59,30.02,29.92,5,1,9,0.00
2013-7-29,77.0,66.0,53.4,62.7,56.2,50.5,90,73,43,30.09,30.02,8,2,12,0.00
2013-7-30,72.1,68.5,64.9,69.0,65.1,58.5,90,89,68,30.06,30.01,6,0,8,0.02
2013-7-31,77.2,68.7,62.2,72.1,63.5,57.6,90,84,62,30.04,29.95,6,0,10,0.01
2013-8-1,79.0,68.2,55.9,66.6,58.6,53.0,90,74,42,30.00,29.82,6,0,10,0.00
2013-8-2,75.4,68.2,59.8,65.2,58.7,52.7,90,74,46,30.00,29.81,3,0,8,0.00
2013-8-3,76.2,66.1,55.0,64.0,54.7,49.5,90,70,41,30.16,30.00,3,0,7,0.00
2013-8-4,73.7,64.9,54.0,65.0,58.1,51.1,90,80,52,30.20,29.97,6,1,8,0.00
2013-8-5,75.9,68.2,62.8,72.7,65.0,59.8,90,89,83,29.99,29.74,8,1,13,1.26
2013-8-6,82.0,69.8,59.5,72.9,64.2,56.5,90,83,61,29.81,29.63,9,2,17,0.37
2013-8-7,72.9,66.0,61.6,63.3,58.3,51.4,90,78,49,29.99,29.74,6,0,13,0.01
2013-8-8,73.8,64.8,56.7,66.9,60.4,53.8,90,86,62,30.02,29.95,5,0,9,0.00
2013-8-9,73.5,66.1,58.7,64.8,57.6,52.0,90,76,48,30.09,29.96,6,1,11,0.00
2013-8-10,74.3,67.4,61.7,63.2,58.3,50.1,90,75,43,30.15,30.05,3,0,8,0.00
2013-8-11,76.9,70.3,65.1,72.0,66.2,62.1,90,87,71,30.05,29.95,5,0,7,0.00
2013-8-12,76.5,69.7,62.9,65.5,60.1,54.9,90,74,49,30.02,29.96,6,1,12,0.00
2013-8-13,72.6,64.8,56.8,61.5,54.1,47.3,90,71,42,30.16,30.03,5,0,8,0.00
2013-8-14,74.7,64.1,54.1,62.8,55.5,51.3,90,76,47,30.17,30.06,5,0,9,0.00
2013-8-15,77.1,65.6,55.5,67.4,58.2,52.6,90,79,50,30.10,30.04,6,1,10,0.00
2013-8-16,78.4,68.1,58.2,66.8,58.6,52.0,90,74,42,30.16,30.09,6,1,10,0.00
2013-8-17,80.6,69.6,58.2,65.0,57.1,50.8,90,69,37,30.17,30.07,9,2,15,0.00
2013-8-18,81.5,71.7,61.5,66.1,59.9,54.7,90,69,40,30.11,29.97,8,4,16,0.00
2013-8-19,84.6,75.2,66.8,72.2,67.9,63.1,90,79,56,29.99,29.86,9,4,15,0.00
2013-8-20,87.7,78.7,71.5,77.2,72.4,68.3,90,82,60,29.88,29.82,9,4,15,0.00
2013-8-21,83.3,78.0,73.4,79.3,74.7,70.2,90,90,84,29.95,29.80,8,2,13,0.01
2013-8-22,81.5,74.5,67.5,71.7,58.5,50.2,90,60,36,30.08,29.94,7,1,14,0.00
2013-8-23,84.8,72.9,61.7,71.7,64.4,57.6,90,77,47,30.11,30.00,9,3,15,0.00
2013-8-24,88.5,79.2,72.0,75.7,71.7,68.9,90,79,56,30.04,29.90,14,8,26,0.00
2013-8-25,92.9,84.6,77.9,78.3,74.9,72.3,90,74,53,29.97,29.90,10,7,21,0.00
2013-8-26,92.1,84.2,77.1,79.1,76.5,73.3,90,79,55,29.95,29.80,9,5,16,0.00
2013-8-27,91.4,83.1,76.0,82.5,77.4,72.9,90,84,62,29.88,29.76,6,1,11,0.00
2013-8-28,88.0,79.9,71.4,78.8,73.5,67.8,90,82,52,29.97,29.87,7,1,12,0.00
2013-8-29,92.0,82.4,76.3,80.6,73.4,64.1,90,77,40,29.96,29.81,9,3,15,0.00
2013-8-30,80.0,76.5,72.3,75.1,70.8,67.1,90,83,67,29.89,29.78,7,2,16,0.00
2013-8-31,85.0,74.4,65.5,74.3,67.7,62.4,90,81,52,29.85,29.67,7,1,12,0.07
2013-9-1,72.8,69.1,63.7,67.4,64.4,59.8,90,85,74,29.94,29.68,9,1,14,0.03
2013-9-2,65.8,60.3,54.6,59.7,56.5,51.7,90,88,76,30.06,29.93,6,0,10,0.00
2013-9-3,73.7,62.1,50.2,63.9,56.4,47.4,90,83,58,30.06,29.96,6,0,9,0.00
2013-9-4,82.7,70.7,59.9,72.3,63.8,56.9,90,80,55,30.11,29.97,5,0,9,0.00
2013-9-5,81.0,71.9,62.0,71.9,65.5,59.0,90,81,60,30.18,30.06,7,2,11,0.00
2013-9-6,88.5,78.4,70.8,73.4,66.7,59.7,90,70,39,30.06,29.83,9,4,20,0.01
2013-9-7,88.9,78.7,69.7,76.1,68.7,62.1,90,74,41,29.97,29.82,8,2,14,0.00
2013-9-8,77.2,72.0,67.8,70.9,67.7,64.8,90,86,72,30.00,29.84,9,4,15,0.00
2013-9-9,90.0,78.4,70.9,78.2,71.2,67.9,90,80,50,29.84,29.59,10,3,18,0.03
2013-9-10,79.4,74.4,69.1,75.1,69.1,65.6,90,84,65,29.95,29.72,6,1,10,0.00
2013-9-11,81.5,72.5,64.9,69.0,60.1,49.6,90,69,36,30.02,29.95,5,0,10,0.00
2013-9-12,72.6,65.8,57.1,58.9,50.8,44.8,90,61,40,30.19,30.02,6,1,15,0.00
2013-9-13,67.8,58.5,49.1,53.2,48.6,43.6,90,72,42,30.25,30.05,5,0,9,0.00
2013-9-14,73.4,61.1,52.4,60.7,51.5,47.0,90,74,40,30.05,29.84,9,3,16,0.52
2013-9-15,64.6,59.1,51.8,61.6,56.2,48.9,90,90,86,30.28,29.83,6,1,13,0.35
2013-9-16,65.1,54.5,44.1,53.3,46.8,41.3,90,77,47,30.37,30.21,7,1,11,0.00
2013-9-17,67.2,57.6,50.5,59.0,53.4,47.7,90,86,69,30.22,29.90,10,5,20,0.02
2013-9-18,75.0,68.6,61.3,71.8,65.6,58.4,90,90,90,29.90,29.65,8,3,14,0.04
2013-9-19,76.3,71.8,65.1,73.2,68.7,62.1,90,90,84,29.77,29.60,8,2,17,0.20
2013-9-20,64.9,59.7,53.4,61.9,55.9,50.5,90,87,74,29.90,29.75,6,1,12,0.02
2013-9-21,61.6,54.8,49.4,53.5,50.3,46.5,90,85,69,29.95,29.87,3,0,8,0.00
2013-9-22,73.6,60.6,49.2,59.9,53.3,46.4,90,79,53,29.93,29.80,10,4,17,0.00
2013-9-23,73.5,63.8,54.7,58.2,54.6,50.3,90,74,45,29.92,29.82,13,6,21,0.00
2013-9-24,74.8,63.0,52.1,59.9,54.7,49.3,90,77,46,29.93,29.86,7,1,12,0.00
2013-9-25,73.8,63.1,53.4,60.7,54.3,50.5,90,75,46,29.93,29.82,9,2,15,0.00
2013-9-26,80.5,68.8,58.1,65.0,58.5,55.2,90,72,46,29.89,29.78,13,6,24,0.00
2013-9-27,82.4,74.0,67.0,67.3,63.3,58.1,90,72,46,29.88,29.76,17,7,24,0.00
2013-9-28,73.1,63.0,51.0,66.7,58.5,48.2,90,85,68,29.91,29.60,13,4,23,0.18
2013-9-29,74.9,60.5,47.3,54.3,46.9,43.5,90,66,33,29.92,29.75,12,4,21,0.00
2013-9-30,78.3,68.2,60.4,53.2,50.6,47.8,74,55,36,29.75,29.56,13,7,25,0.00
2013-10-1,74.2,66.7,52.8,58.0,46.2,32.6,80,51,22,29.95,29.55,10,2,21,0.00
2013-10-2,75.9,61.0,47.0,59.6,44.7,33.7,90,63,24,30.00,29.77,10,2,20,0.53
2013-10-3,60.2,59.4,58.1,57.3,56.5,55.2,90,90,90,29.88,29.74,10,1,22,0.30
2013-10-4,59.3,57.7,56.2,56.3,54.8,53.3,90,90,90,29.93,29.78,10,3,20,0.22
2013-10-5,61.4,56.3,46.0,58.4,53.2,42.9,90,89,81,29.82,29.69,8,1,20,0.04
2013-10-6,54.5,48.8,43.3,51.6,46.0,40.5,90,90,90,29.81,29.64,6,0,13,0.06
2013-10-7,64.1,52.8,43.3,54.9,46.1,40.6,90,80,48,29.93,29.79,6,0,9,0.01
2013-10-8,75.0,63.0,52.5,51.6,47.8,44.3,88,61,34,29.93,29.78,15,7,27,0.00
2013-10-9,75.2,66.7,60.2,55.1,51.0,47.3,80,58,39,30.00,29.88,12,6,23,0.00
2013-10-10,76.9,64.2,52.8,57.0,51.2,47.3,90,66,36,29.99,29.84,12,4,21,0.00
2013-10-11,74.8,66.5,57.0,65.4,56.7,52.6,90,73,46,29.83,29.59,15,7,34,0.08
2013-10-12,61.6,53.0,46.6,58.7,47.4,41.4,90,82,57,30.14,29.67,8,2,17,0.01
2013-10-13,59.0,48.6,38.9,46.4,40.3,34.0,90,76,39,30.40,30.14,3,0,7,0.00
2013-10-14,55.4,49.0,42.0,50.6,43.9,39.2,90,83,58,30.36,29.91,12,2,22,0.43
2013-10-15,54.5,51.3,48.3,51.6,48.4,45.5,90,90,90,29.92,29.62,13,3,22,0.62
2013-10-16,52.7,47.0,41.1,47.8,43.6,38.4,90,88,74,29.92,29.78,6,0,12,0.02
2013-10-17,59.8,47.7,40.1,48.5,42.6,37.4,90,84,50,29.84,29.71,6,0,11,0.10
2013-10-18,52.6,45.6,40.5,44.9,39.5,33.4,90,81,48,29.93,29.80,5,0,10,0.11
2013-10-19,48.5,41.6,36.3,45.2,38.9,33.7,90,90,85,29.80,29.63,7,1,12,0.03
2013-10-20,49.2,39.9,33.8,46.0,37.2,31.2,90,90,86,29.83,29.56,10,2,14,0.02
2013-10-21,40.5,37.1,32.0,37.8,29.9,26.2,90,76,60,29.92,29.83,5,1,14,0.00
2013-10-22,41.6,35.2,27.2,37.4,31.8,24.7,90,87,77,29.99,29.91,6,0,9,0.01
2013-10-23,40.0,36.8,34.6,35.8,30.5,25.5,90,78,63,30.06,29.95,5,0,12,0.00
2013-10-24,44.6,39.4,34.8,36.5,31.7,26.1,90,74,58,30.27,30.06,5,0,13,0.00
2013-10-25,56.8,44.2,29.5,45.3,36.7,27.0,90,76,56,30.28,29.73,13,4,23,0.00
2013-10-26,52.2,45.2,39.1,45.2,35.0,32.3,82,68,54,30.06,29.74,9,2,15,0.00
2013-10-27,56.6,44.0,32.6,36.4,33.6,30.0,90,70,42,30.08,29.76,10,2,18,0.00
2013-10-28,43.5,38.7,33.7,35.3,29.3,24.9,90,70,49,30.38,30.08,8,2,17,0.00
2013-10-29,44.2,39.5,32.6,40.3,33.8,26.2,90,80,74,30.36,30.04,7,2,12,0.03
2013-10-30,51.1,46.7,41.4,48.3,43.9,38.7,90,90,90,30.03,29.62,7,0,14,0.11
2013-10-31,51.2,44.9,42.2,48.4,42.2,39.5,90,90,90,29.62,29.36,3,0,8,0.01
2013-11-1,51.6,45.3,40.7,43.3,40.3,37.6,90,83,66,29.81,29.36,7,1,14,0.01
2013-11-2,49.3,41.8,36.3,40.0,36.0,33.1,90,81,54,30.05,29.81,6,0,9,0.00
2013-11-3,55.2,45.9,36.9,39.6,36.2,33.2,90,71,44,30.06,29.83,18,8,32,0.00
2013-11-4,49.7,46.3,37.5,46.6,41.2,34.8,90,83,63,30.11,29.78,16,5,27,0.19
2013-11-5,44.7,37.2,31.4,40.6,33.4,28.8,90,86,60,30.19,29.96,10,1,19,0.01
2013-11-6,39.4,35.0,32.3,34.1,31.7,29.7,90,88,75,30.13,29.96,7,1,12,0.23
2013-11-7,36.6,32.5,29.0,34.0,29.9,26.4,90,90,90,30.20,30.12,6,1,12,0.00
2013-11-8,47.6,37.7,27.1,44.7,32.3,24.5,90,82,60,30.15,29.55,13,5,23,0.01
2013-11-9,47.4,43.0,37.1,44.6,37.0,29.0,90,80,63,30.16,29.58,10,4,17,0.00
2013-11-10,43.6,40.2,34.7,36.9,34.6,31.3,90,80,69,30.29,30.03,7,2,14,0.00
2013-11-11,39.9,27.1,18.5,36.5,18.5,12.1,90,70,54,30.68,30.06,10,3,19,0.00
2013-11-12,29.1,21.7,15.4,19.4,14.8,12.0,90,75,54,30.74,30.40,6,1,13,0.00
2013-11-13,49.8,37.7,24.6,37.6,28.0,17.8,80,68,54,30.40,29.83,12,5,24,0.00
2013-11-14,51.0,41.5,35.8,42.4,37.5,33.1,90,86,72,29.83,29.71,7,2,12,0.00
2013-11-15,55.6,43.2,32.1,46.0,37.6,29.5,90,81,58,29.80,29.59,12,3,17,0.00
2013-11-16,50.6,47.1,44.3,47.8,44.1,40.1,90,89,77,29.59,29.18,12,4,21,0.19
2013-11-17,45.5,41.2,33.8,42.8,38.3,30.0,90,89,86,29.79,29.26,13,4,22,0.01
2013-11-18,36.5,31.6,25.6,29.8,25.8,23.1,90,79,64,30.21,29.79,9,3,16,0.00
2013-11-19,47.5,36.4,24.1,35.1,29.1,21.6,90,76,56,30.21,29.86,18,6,30,0.00
2013-11-20,46.4,43.8,39.7,38.1,33.6,27.9,90,69,50,29.99,29.83,16,7,30,0.00
2013-11-21,40.5,33.2,26.9,37.8,30.4,21.2,90,89,79,30.46,29.99,9,3,15,0.00
2013-11-22,32.9,25.1,15.3,21.1,17.2,7.8,90,73,49,30.58,30.40,9,2,15,0.00
2013-11-23,19.3,14.0,8.9,9.5,6.7,4.4,88,73,53,30.79,30.58,8,1,15,0.00
2013-11-24,31.3,21.3,9.8,20.1,13.1,5.9,84,71,57,30.66,29.94,16,7,26,0.00
2013-11-25,41.2,35.1,29.1,33.1,27.3,20.1,90,73,61,30.03,29.85,15,3,25,0.00
2013-11-26,32.5,23.0,16.2,24.8,11.5,6.1,76,61,52,30.33,30.03,13,4,22,0.00
2013-11-27,26.1,19.8,11.1,15.2,12.1,8.0,90,73,58,30.33,30.02,7,1,14,0.00
2013-11-28,28.9,24.5,15.1,19.0,16.4,11.6,86,71,61,30.46,30.01,7,1,12,0.00
2013-11-29,34.5,24.9,12.6,25.7,19.0,10.0,90,79,60,30.46,30.08,13,3,22,0.00
2013-11-30,41.7,34.2,27.3,33.8,28.8,24.7,90,81,68,30.11,29.98,8,1,14,0.00
2013-12-1,36.3,29.8,21.8,31.0,26.3,19.3,90,87,80,30.14,29.87,6,0,8,0.00
2013-12-2,39.8,34.8,28.7,36.6,32.1,26.2,90,90,88,29.86,29.51,10,4,17,0.11
2013-12-3,37.4,35.8,33.2,34.7,33.2,30.6,90,90,90,29.73,29.51,9,1,15,0.11
2013-12-4,33.2,29.7,15.3,30.6,27.1,12.9,90,90,90,29.71,29.42,0,0,6,0.00
2013-12-5,15.0,7.5,1.3,12.6,4.6,-1.4,90,88,83,30.30,29.68,0,0,0,0.00
2013-12-6,4.1,-0.5,-4.4,0.1,-3.8,-8.0,89,86,81,30.60,30.30,0,0,0,0.00
2013-12-7,3.2,-2.8,-9.2,-1.9,-6.6,-12.4,87,83,78,30.67,30.51,0,0,0,0.00
2013-12-8,15.4,9.3,-0.3,13.0,6.9,-3.3,90,90,87,30.51,29.97,0,0,0,0.00
2013-12-9,13.6,2.8,-1.8,11.2,-0.6,-5.9,90,86,79,30.06,29.81,0,0,0,0.00
2013-12-10,16.2,9.7,4.1,13.8,6.2,0.7,90,86,79,30.22,29.70,8,1,13,0.00
2013-12-11,9.1,-0.8,-5.5,5.0,-5.8,-9.9,83,79,72,30.52,30.22,8,1,16,0.00
2013-12-12,21.0,14.5,3.5,16.4,10.9,-0.5,90,85,79,30.25,30.08,7,1,12,0.01
2013-12-13,18.6,16.0,13.3,15.3,13.0,11.0,90,88,82,30.22,30.06,10,4,18,0.00
2013-12-14,17.2,11.9,1.9,13.7,9.0,-1.8,90,88,83,30.22,30.03,7,2,13,0.00
2013-12-15,9.8,3.5,1.1,4.0,-2.3,-3.8,84,77,65,30.10,30.04,6,0,8,0.00
2013-12-16,23.2,12.7,3.1,20.7,9.2,-2.7,90,86,75,30.07,29.86,8,2,14,0.00
2013-12-17,32.6,25.0,10.8,29.9,20.5,7.8,90,83,69,30.06,29.82,9,3,21,0.00
2013-12-18,38.4,25.1,8.9,32.5,21.7,6.3,90,87,79,30.02,29.59,13,3,19,0.13
2013-12-19,29.9,20.8,18.3,27.3,17.6,13.8,90,87,80,30.02,29.75,9,5,17,0.00
2013-12-20,21.2,19.5,17.2,18.7,17.0,14.8,90,90,89,29.97,29.80,7,2,12,0.00
2013-12-21,24.4,21.4,18.5,20.8,18.5,16.0,90,89,83,29.93,29.80,8,2,13,0.01
2013-12-22,21.1,16.1,5.2,18.7,13.6,2.4,90,89,87,30.19,29.88,7,2,12,0.00
2013-12-23,5.3,0.5,-3.4,2.5,-3.7,-7.8,88,82,77,30.45,30.19,6,1,9,0.00
2013-12-24,13.1,2.2,-12.1,9.3,-2.7,-16.0,90,80,61,30.44,30.07,10,3,18,0.00
2013-12-25,30.1,18.8,11.8,27.4,15.8,9.4,90,88,75,30.09,29.98,7,1,12,0.02
2013-12-26,29.1,21.6,13.3,26.5,19.1,10.9,90,90,90,30.11,30.01,5,0,7,0.00
2013-12-27,40.5,30.2,16.0,36.0,27.4,13.6,90,89,84,30.10,29.85,10,3,20,0.14
2013-12-28,45.1,34.2,23.2,38.3,30.5,20.7,90,87,73,29.93,29.58,13,3,20,0.29
2013-12-29,22.8,2.9,-8.4,20.3,-2.9,-14.0,90,76,62,30.27,29.94,12,4,22,0.00
2013-12-30,3.7,-2.2,-10.3,0.9,-5.7,-14.7,90,85,77,30.25,30.11,6,0,10,0.00
2013-12-31,2.7,-2.8,-6.7,-1.8,-6.6,-10.6,87,83,76,30.34,30.14,5,0,8,0.00
2014-1-1,3.4,-0.6,-5.3,-2.7,-5.9,-10.0,82,78,74,30.42,30.33,6,0,12,0.00
2014-1-2,4.8,-1.2,-7.1,-3.6,-8.2,-13.0,80,72,56,30.45,30.32,3,0,7,0.00